Thomasville, PA

12:01 PM EST on December 10, 2016 (GMT -0500)
York

Weather History for KTHV - July, 2013

Change the Weather History Date:

Saturday, July 20, 2013

  Actual Average Record
Temperature  
Mean Temperature 81 °F -  
Max Temperature 89 °F 84 °F 93 °F (2011)
Min Temperature 73 °F 66 °F 53 °F (2001)
Cooling Degree Days 16    
Growing Degree Days 31 (Base 50)    
Moisture  
Dew Point 67 °F    
Average Humidity 63    
Maximum Humidity 81    
Minimum Humidity 51    
Precipitation  
Precipitation 0.00 in - - ()
Sea Level Pressure  
Sea Level Pressure 29.85 in    
Wind  
Wind Speed 4 mph (WSW)    
Max Wind Speed 13 mph    
Max Gust Speed 22 mph    
Visibility 10 miles    
Events Thunderstorm    
Averages and records for this station are not official NWS values.
T = Trace of Precipitation, MM = Missing Value Source: NWS Daily Summary

Daily Weather History Graph

Daily Weather History Graph

Search for Another Location

Airport or City:

Trip Planner

Search our weather history database for the weather conditions in past years. The results will help you decide how hot, cold, wet, or windy it might be!

Date:

Astronomy

Jul. 20, 2013 Rise Set
Actual Time 5:55 AM EDT 8:31 PM EDT
Civil Twilight 5:24 AM EDT 9:02 PM EDT
Nautical Twilight 4:45 AM EDT 9:41 PM EDT
Astronomical Twilight 4:01 AM EDT 10:25 PM EDT
Moon 6:33 PM EDT (7/20) 3:33 AM EDT (7/20)
Length of Visible Light 15h 38m
Length of Day
14h 35m
Waxing Gibbous, 93% of the Moon is Illuminated
Jul 20
Waxing Gibbous
Jul 22
Full
Jul 29
Last Quarter
Aug 6
New
Aug 14
First Quarter

Hourly Weather History & Observations

Time (EDT) Temp. Heat Index Dew Point Humidity Pressure Visibility Wind Dir Wind Speed Gust Speed Precip Events Conditions
12:53 AM 73.9 °F - 66.0 °F 76% 29.88 in 10.0 mi NNW 3.5 mph - N/A   Clear
1:53 AM 73.0 °F - 66.9 °F 81% 29.88 in 10.0 mi Calm Calm - N/A   Clear
2:53 AM 73.9 °F - 66.9 °F 79% 29.87 in 10.0 mi Calm Calm - N/A   Clear
3:53 AM 75.9 °F - 66.0 °F 71% 29.83 in 10.0 mi SSW 3.5 mph - N/A   Clear
4:53 AM 73.0 °F - 66.0 °F 79% 29.86 in 10.0 mi Calm Calm - N/A   Clear
5:53 AM 77.0 °F - 66.0 °F 69% 29.86 in 10.0 mi West 4.6 mph - N/A   Scattered Clouds
6:53 AM 78.1 °F - 66.0 °F 66% 29.86 in 10.0 mi SSW 3.5 mph - N/A   Clear
7:53 AM 78.1 °F - 66.0 °F 66% 29.87 in 10.0 mi WSW 3.5 mph - N/A   Partly Cloudy
8:53 AM 80.1 °F 82.1 °F 66.0 °F 62% 29.88 in 10.0 mi WSW 4.6 mph - N/A   Clear
9:53 AM 82.9 °F 85.8 °F 68.0 °F 60% 29.88 in 10.0 mi WSW 10.4 mph - N/A   Partly Cloudy
10:53 AM 84.0 °F 88.4 °F 70.0 °F 63% 29.86 in 10.0 mi WSW 8.1 mph 16.1 mph N/A   Clear
11:53 AM 86.0 °F 90.7 °F 70.0 °F 59% 29.85 in 10.0 mi SW 9.2 mph - N/A   Clear
12:53 PM 86.0 °F 90.7 °F 70.0 °F 59% 29.85 in 10.0 mi WSW 11.5 mph 20.7 mph N/A   Partly Cloudy
1:53 PM 84.9 °F 88.8 °F 69.1 °F 59% 29.83 in 10.0 mi WSW 12.7 mph 21.9 mph N/A   Partly Cloudy
2:53 PM 87.1 °F 89.9 °F 66.9 °F 51% 29.81 in 10.0 mi WSW 9.2 mph 18.4 mph N/A   Clear
3:53 PM 87.1 °F 90.6 °F 68.0 °F 53% 29.81 in 10.0 mi West 5.8 mph - N/A   Clear
4:53 PM 89.1 °F 94.1 °F 70.0 °F 53% 29.80 in 10.0 mi West 10.4 mph - N/A   Clear
5:53 PM 88.0 °F 93.8 °F 71.1 °F 57% 29.80 in 10.0 mi WSW 8.1 mph - N/A   Clear
6:53 PM 87.1 °F 89.9 °F 66.9 °F 51% 29.81 in 10.0 mi WSW 9.2 mph - N/A   Clear
7:53 PM 82.0 °F 83.8 °F 64.9 °F 56% 29.83 in 10.0 mi West 3.5 mph - N/A   Clear
8:53 PM 80.1 °F 81.9 °F 64.9 °F 60% 29.84 in 10.0 mi Calm Calm - N/A   Clear
9:53 PM 79.0 °F - 63.0 °F 58% 29.86 in 10.0 mi WNW 5.8 mph - N/A Thunderstorm Mostly Cloudy
10:14 PM 78.8 °F - 62.6 °F 57% 29.88 in 10.0 mi SW 3.5 mph - N/A   Mostly Cloudy
10:53 PM 78.1 °F - 64.0 °F 62% 29.88 in 10.0 mi Calm Calm - N/A   Mostly Cloudy
11:53 PM 73.9 °F - 66.0 °F 76% 29.89 in 10.0 mi Calm Calm - N/A   Clear